User: anonymous   Login
Location: Huntsville
(41.2590°N, 111.7678°W)
Time: 04:55:47
(UTC+00:00)
Language:

Courier 1B - Orbit

View from above orbital plane
View from above orbital plane
View from above satellite
View from above satellite

Ground track
Ground track

The orbit data is extracted from the following two-line orbital elements,

1 00058U 60013A   22278.31546190  .00000102  00000-0  21991-4 0  9992
2 00058  28.3264 153.7544 0165009 182.6211 177.3473 13.46338893 51872
Epoch (UTC): 05 October 2022 07:34:15
Eccentricity: 0.0165009
inclination: 28.3264°
perigee height: 962 km
apogee height: 1209 km
right ascension of ascending node: 153.7544°
argument of perigee: 182.6211°
revolutions per day: 13.46338893
mean anomaly at epoch: 177.3473°
orbit number at epoch: 5187

The dashed part of the orbit path shows where the satellite is in the earth's shadow,  

DLR